Time,TemperatureF,DewpointF,PressureIn,WindDirection,WindDirectionDegrees,WindSpeedMPH,WindSpeedGustMPH,Humidity,HourlyPrecipIn,Conditions,Clouds,dailyrainin,SoftwareType,DateUTC
2013-11-02 00:01:00,45.5,44.0,29.74,West,264,1.0,5.0,93,0.00,,,0.00,weatherlink.com 1.10,2013-11-02 05:01:00,
2013-11-02 00:16:00,45.6,44.0,29.74,West,269,2.0,7.0,93,0.00,,,0.00,weatherlink.com 1.10,2013-11-02 05:16:00,
2013-11-02 00:31:00,45.5,44.0,29.74,West,276,1.0,7.0,93,0.00,,,0.00,weatherlink.com 1.10,2013-11-02 05:31:00,
2013-11-02 00:46:00,45.1,43.0,29.74,West,261,2.0,4.0,92,0.00,,,0.00,weatherlink.com 1.10,2013-11-02 05:46:00,
2013-11-02 01:02:00,44.4,42.0,29.75,WNW,291,1.0,7.0,92,0.00,,,0.00,weatherlink.com 1.10,2013-11-02 06:02:00,
2013-11-02 01:17:00,44.1,42.0,29.75,West,263,0.0,4.0,92,0.00,,,0.00,weatherlink.com 1.10,2013-11-02 06:17:00,
2013-11-02 01:32:00,44.0,42.0,29.75,West,267,1.0,7.0,93,0.00,,,0.00,weatherlink.com 1.10,2013-11-02 06:32:00,
2013-11-02 01:47:00,43.5,41.0,29.76,WSW,252,0.0,5.0,92,0.00,,,0.00,weatherlink.com 1.10,2013-11-02 06:47:00,
2013-11-02 02:02:00,42.9,41.0,29.75,West,259,0.0,8.0,92,0.00,,,0.00,weatherlink.com 1.10,2013-11-02 07:02:00,
2013-11-02 02:17:00,42.6,41.0,29.76,West,273,2.0,8.0,92,0.00,,,0.00,weatherlink.com 1.10,2013-11-02 07:17:00,
2013-11-02 02:32:00,42.3,41.0,29.75,WSW,257,3.0,5.0,93,0.00,,,0.00,weatherlink.com 1.10,2013-11-02 07:32:00,
2013-11-02 02:47:00,42.0,40.0,29.75,West,267,2.0,4.0,93,0.00,,,0.00,weatherlink.com 1.10,2013-11-02 07:47:00,
2013-11-02 03:02:00,41.5,40.0,29.75,WNW,290,0.0,4.0,93,0.00,,,0.00,weatherlink.com 1.10,2013-11-02 08:02:00,
2013-11-02 03:17:00,41.2,39.0,29.76,West,263,1.0,5.0,93,0.01,,,0.01,weatherlink.com 1.10,2013-11-02 08:17:00,
2013-11-02 03:32:00,40.7,39.0,29.77,NW,314,0.0,4.0,93,0.01,,,0.01,weatherlink.com 1.10,2013-11-02 08:32:00,
2013-11-02 03:47:00,40.4,39.0,29.77,West,277,0.0,2.0,93,0.01,,,0.01,weatherlink.com 1.10,2013-11-02 08:47:00,
2013-11-02 04:02:00,39.5,38.0,29.77,West,277,0.0,3.0,93,0.01,,,0.01,weatherlink.com 1.10,2013-11-02 09:02:00,
2013-11-02 04:17:00,39.2,37.0,29.78,West,273,2.0,4.0,93,0.00,,,0.01,weatherlink.com 1.10,2013-11-02 09:17:00,
2013-11-02 04:32:00,39.6,38.0,29.78,WNW,288,0.0,2.0,93,0.00,,,0.01,weatherlink.com 1.10,2013-11-02 09:32:00,
2013-11-02 04:47:00,39.3,38.0,29.78,WNW,290,0.0,5.0,93,0.00,,,0.01,weatherlink.com 1.10,2013-11-02 09:47:00,
2013-11-02 05:02:00,38.9,37.0,29.79,WNW,298,0.0,3.0,93,0.00,,,0.01,weatherlink.com 1.10,2013-11-02 10:02:00,
2013-11-02 05:17:00,38.6,37.0,29.79,West,277,0.0,2.0,93,0.00,,,0.01,weatherlink.com 1.10,2013-11-02 10:17:00,
2013-11-02 05:32:00,38.3,37.0,29.79,West,279,0.0,3.0,93,0.00,,,0.01,weatherlink.com 1.10,2013-11-02 10:32:00,
2013-11-02 05:47:00,37.9,36.0,29.80,West,280,1.0,3.0,93,0.00,,,0.01,weatherlink.com 1.10,2013-11-02 10:47:00,
2013-11-02 06:02:00,37.6,36.0,29.81,West,280,0.0,2.0,93,0.00,,,0.01,weatherlink.com 1.10,2013-11-02 11:02:00,
2013-11-02 06:17:00,37.5,36.0,29.80,West,280,0.0,2.0,94,0.00,,,0.01,weatherlink.com 1.10,2013-11-02 11:17:00,
2013-11-02 06:32:00,37.5,36.0,29.81,West,269,1.0,3.0,93,0.00,,,0.01,weatherlink.com 1.10,2013-11-02 11:32:00,
2013-11-02 06:47:00,37.3,36.0,29.82,West,281,1.0,3.0,93,0.00,,,0.01,weatherlink.com 1.10,2013-11-02 11:47:00,
2013-11-02 07:02:00,36.8,35.0,29.82,West,281,1.0,2.0,93,0.00,,,0.01,weatherlink.com 1.10,2013-11-02 12:02:00,
2013-11-02 07:18:00,36.8,35.0,29.83,West,275,0.0,5.0,94,0.00,,,0.01,weatherlink.com 1.10,2013-11-02 12:18:00,
2013-11-02 07:33:00,36.5,35.0,29.84,WSW,246,0.0,3.0,94,0.00,,,0.01,weatherlink.com 1.10,2013-11-02 12:33:00,
2013-11-02 07:48:00,36.7,35.0,29.84,WSW,255,0.0,7.0,94,0.00,,,0.01,weatherlink.com 1.10,2013-11-02 12:48:00,
2013-11-02 08:03:00,37.3,36.0,29.85,WSW,257,0.0,4.0,94,0.00,,,0.01,weatherlink.com 1.10,2013-11-02 13:03:00,
2013-11-02 08:18:00,38.5,37.0,29.86,West,269,0.0,4.0,94,0.00,,,0.01,weatherlink.com 1.10,2013-11-02 13:18:00,
2013-11-02 08:33:00,39.8,39.0,29.86,NNW,344,4.0,4.0,95,0.00,,,0.01,weatherlink.com 1.10,2013-11-02 13:33:00,
2013-11-02 08:48:00,40.7,39.0,29.87,WSW,256,0.0,7.0,95,0.00,,,0.01,weatherlink.com 1.10,2013-11-02 13:48:00,
2013-11-02 09:02:00,42.0,41.0,29.87,NW,309,2.0,3.0,95,0.00,,,0.01,weatherlink.com 1.10,2013-11-02 14:02:00,
2013-11-02 09:57:00,45.0,42.0,29.89,NNE,28,1.0,8.0,90,0.00,,,0.01,weatherlink.com 1.10,2013-11-02 14:57:00,
2013-11-02 10:03:00,45.2,42.0,29.89,NNE,28,5.0,9.0,89,0.00,,,0.01,weatherlink.com 1.10,2013-11-02 15:03:00,
2013-11-02 10:18:00,46.4,43.0,29.89,WSW,253,2.0,10.0,88,0.00,,,0.01,weatherlink.com 1.10,2013-11-02 15:18:00,
2013-11-02 10:33:00,47.4,43.0,29.91,NNW,339,5.0,11.0,85,0.00,,,0.01,weatherlink.com 1.10,2013-11-02 15:33:00,
2013-11-02 10:48:00,48.4,43.0,29.91,NE,49,2.0,8.0,81,0.00,,,0.01,weatherlink.com 1.10,2013-11-02 15:48:00,
2013-11-02 11:03:00,48.4,42.0,29.91,WSW,241,5.0,10.0,79,0.00,,,0.01,weatherlink.com 1.10,2013-11-02 16:03:00,
2013-11-02 11:18:00,49.1,43.0,29.92,West,259,1.0,8.0,78,0.00,,,0.01,weatherlink.com 1.10,2013-11-02 16:18:00,
2013-11-02 11:33:00,49.3,42.0,29.93,NW,306,4.0,10.0,75,0.00,,,0.01,weatherlink.com 1.10,2013-11-02 16:33:00,
2013-11-02 11:48:00,50.1,42.0,29.93,NW,315,1.0,12.0,73,0.00,,,0.01,weatherlink.com 1.10,2013-11-02 16:48:00,
2013-11-02 12:03:00,49.2,41.0,29.93,SSE,167,1.0,12.0,72,0.00,,,0.01,weatherlink.com 1.10,2013-11-02 17:03:00,
2013-11-02 12:18:00,48.6,40.0,29.94,North,355,2.0,8.0,72,0.00,,,0.01,weatherlink.com 1.10,2013-11-02 17:18:00,
2013-11-02 12:33:00,48.4,39.0,29.94,NW,318,3.0,13.0,71,0.00,,,0.01,weatherlink.com 1.10,2013-11-02 17:33:00,
2013-11-02 12:48:00,49.3,40.0,29.94,SW,228,2.0,11.0,70,0.00,,,0.01,weatherlink.com 1.10,2013-11-02 17:48:00,
2013-11-02 13:03:00,49.9,39.0,29.93,WSW,240,3.0,10.0,67,0.00,,,0.01,weatherlink.com 1.10,2013-11-02 18:03:00,
2013-11-02 13:18:00,50.0,39.0,29.93,NW,322,5.0,9.0,65,0.00,,,0.01,weatherlink.com 1.10,2013-11-02 18:18:00,
2013-11-02 13:33:00,50.2,39.0,29.93,SW,222,2.0,9.0,66,0.00,,,0.01,weatherlink.com 1.10,2013-11-02 18:33:00,
2013-11-02 13:48:00,50.1,38.0,29.93,WNW,295,4.0,14.0,64,0.00,,,0.01,weatherlink.com 1.10,2013-11-02 18:48:00,
2013-11-02 14:03:00,49.9,39.0,29.95,WSW,249,7.0,11.0,66,0.00,,,0.01,weatherlink.com 1.10,2013-11-02 19:03:00,
2013-11-02 14:18:00,49.3,39.0,29.95,WNW,290,9.0,14.0,67,0.00,,,0.01,weatherlink.com 1.10,2013-11-02 19:18:00,
2013-11-02 14:33:00,48.3,40.0,29.96,West,267,4.0,9.0,73,0.00,,,0.01,weatherlink.com 1.10,2013-11-02 19:33:00,
2013-11-02 14:48:00,47.6,40.0,29.97,WSW,238,2.0,9.0,76,0.00,,,0.01,weatherlink.com 1.10,2013-11-02 19:48:00,
2013-11-02 15:03:00,47.1,40.0,29.98,West,275,3.0,11.0,77,0.00,,,0.01,weatherlink.com 1.10,2013-11-02 20:03:00,
2013-11-02 15:18:00,46.8,40.0,29.98,West,280,7.0,12.0,78,0.00,,,0.01,weatherlink.com 1.10,2013-11-02 20:18:00,
2013-11-02 15:33:00,46.7,41.0,29.98,North,355,2.0,9.0,79,0.00,,,0.01,weatherlink.com 1.10,2013-11-02 20:33:00,
2013-11-02 15:48:00,46.5,40.0,29.99,NNE,29,0.0,8.0,79,0.00,,,0.01,weatherlink.com 1.10,2013-11-02 20:48:00,
2013-11-02 16:03:00,46.6,40.0,30.00,NW,311,3.0,7.0,78,0.00,,,0.01,weatherlink.com 1.10,2013-11-02 21:03:00,
2013-11-02 16:18:00,46.7,40.0,30.00,West,263,2.0,9.0,78,0.00,,,0.01,weatherlink.com 1.10,2013-11-02 21:18:00,
2013-11-02 16:33:00,46.6,40.0,30.01,NW,314,2.0,10.0,78,0.00,,,0.01,weatherlink.com 1.10,2013-11-02 21:33:00,
2013-11-02 16:48:00,46.1,40.0,30.02,WSW,253,2.0,10.0,79,0.00,,,0.01,weatherlink.com 1.10,2013-11-02 21:48:00,
2013-11-02 17:03:00,45.8,40.0,30.02,WNW,282,4.0,8.0,80,0.00,,,0.01,weatherlink.com 1.10,2013-11-02 22:03:00,
2013-11-02 17:18:00,45.5,41.0,30.02,West,275,2.0,4.0,83,0.00,,,0.01,weatherlink.com 1.10,2013-11-02 22:18:00,
2013-11-02 17:33:00,45.1,41.0,30.03,West,260,0.0,6.0,84,0.00,,,0.01,weatherlink.com 1.10,2013-11-02 22:33:00,
2013-11-02 17:48:00,44.9,40.0,30.04,NW,317,0.0,5.0,83,0.00,,,0.01,weatherlink.com 1.10,2013-11-02 22:48:00,
2013-11-02 18:04:00,44.8,40.0,30.04,WNW,295,0.0,4.0,83,0.00,,,0.01,weatherlink.com 1.10,2013-11-02 23:04:00,
2013-11-02 18:19:00,44.6,40.0,30.05,SW,236,1.0,5.0,83,0.00,,,0.01,weatherlink.com 1.10,2013-11-02 23:19:00,
2013-11-02 18:34:00,44.4,40.0,30.05,West,271,1.0,4.0,83,0.00,,,0.01,weatherlink.com 1.10,2013-11-02 23:34:00,
2013-11-02 18:49:00,44.3,40.0,30.07,West,264,2.0,8.0,84,0.00,,,0.01,weatherlink.com 1.10,2013-11-02 23:49:00,
2013-11-02 19:04:00,44.3,40.0,30.07,West,280,0.0,4.0,84,0.00,,,0.01,weatherlink.com 1.10,2013-11-03 00:04:00,
2013-11-02 19:19:00,44.1,40.0,30.07,NW,306,0.0,4.0,84,0.00,,,0.01,weatherlink.com 1.10,2013-11-03 00:19:00,
2013-11-02 19:34:00,44.0,40.0,30.09,West,265,0.0,3.0,84,0.00,,,0.01,weatherlink.com 1.10,2013-11-03 00:34:00,
2013-11-02 19:49:00,43.8,40.0,30.09,West,274,0.0,3.0,85,0.00,,,0.01,weatherlink.com 1.10,2013-11-03 00:49:00,
2013-11-02 20:04:00,43.7,40.0,30.09,West,276,1.0,2.0,85,0.00,,,0.01,weatherlink.com 1.10,2013-11-03 01:04:00,
2013-11-02 20:19:00,43.5,39.0,30.10,West,278,1.0,2.0,85,0.00,,,0.01,weatherlink.com 1.10,2013-11-03 01:19:00,
2013-11-02 20:34:00,43.3,39.0,30.09,West,278,0.0,2.0,86,0.00,,,0.01,weatherlink.com 1.10,2013-11-03 01:34:00,
2013-11-02 20:49:00,42.8,39.0,30.10,West,278,1.0,2.0,87,0.00,,,0.01,weatherlink.com 1.10,2013-11-03 01:49:00,
2013-11-02 21:04:00,42.4,39.0,30.11,West,277,0.0,1.0,87,0.00,,,0.01,weatherlink.com 1.10,2013-11-03 02:04:00,
2013-11-02 21:19:00,41.9,39.0,30.11,West,277,0.0,1.0,88,0.00,,,0.01,weatherlink.com 1.10,2013-11-03 02:19:00,
2013-11-02 21:34:00,41.3,38.0,30.11,West,277,0.0,0.0,89,0.00,,,0.01,weatherlink.com 1.10,2013-11-03 02:34:00,
2013-11-02 21:49:00,40.8,38.0,30.12,West,277,0.0,2.0,89,0.00,,,0.01,weatherlink.com 1.10,2013-11-03 02:49:00,
2013-11-02 22:04:00,40.3,38.0,30.12,West,277,0.0,2.0,90,0.00,,,0.01,weatherlink.com 1.10,2013-11-03 03:04:00,
2013-11-02 22:19:00,40.2,38.0,30.13,West,277,0.0,2.0,91,0.00,,,0.01,weatherlink.com 1.10,2013-11-03 03:19:00,
2013-11-02 22:34:00,40.6,38.0,30.13,West,277,0.0,1.0,91,0.00,,,0.01,weatherlink.com 1.10,2013-11-03 03:34:00,
2013-11-02 22:49:00,40.5,38.0,30.13,West,278,0.0,1.0,91,0.00,,,0.01,weatherlink.com 1.10,2013-11-03 03:49:00,
2013-11-02 23:04:00,40.5,38.0,30.13,West,277,0.0,0.0,91,0.00,,,0.01,weatherlink.com 1.10,2013-11-03 04:04:00,
2013-11-02 23:19:00,40.2,38.0,30.12,West,278,0.0,1.0,91,0.00,,,0.01,weatherlink.com 1.10,2013-11-03 04:19:00,
2013-11-02 23:34:00,39.6,37.0,30.13,West,278,0.0,1.0,91,0.00,,,0.01,weatherlink.com 1.10,2013-11-03 04:34:00,
2013-11-02 23:49:00,39.0,37.0,30.13,West,278,0.0,1.0,91,0.00,,,0.01,weatherlink.com 1.10,2013-11-03 04:49:00,